1497150000.4,29901,16.81,74194.8,0.73,-5.69,-4.93,0,*4E
1497150001.62,29902,16.81,74194.8,0.73,-5.73,-4.89,0,*4D
1497150002.87,29903,16.75,74190.5,0.77,-5.69,-5.03,0,*40
1497150004.1,29904,16.81,74192.0,0.73,-5.81,-5.07,0,*41
1497150005.3,29905,16.81,74196.0,0.73,-6.05,-5.19,0,*40
1497150006.54,29906,16.81,74198.0,0.73,-5.93,-5.27,0,*42
1497150007.77,29907,16.81,74194.3,0.73,-5.81,-5.03,0,*46
1497150009.0,29908,16.81,74196.0,0.73,-5.73,-5.07,0,*40
1497150010.24,29909,16.81,74198.8,0.73,-5.81,-5.07,0,*4C
1497150011.47,29910,16.81,74198.8,0.73,-5.85,-5.19,0,*4F
1497150012.7,29911,16.81,74196.3,0.73,-5.85,-5.15,0,*42
1497150013.94,29912,16.81,74196.0,0.73,-5.81,-5.03,0,*42
1497150015.17,29913,16.81,74192.3,0.73,-5.73,-5.03,0,*4E
1497150016.41,29914,16.81,74198.3,0.77,-5.69,-4.89,0,*45
1497150017.64,29915,16.81,74198.5,0.73,-5.85,-5.15,0,*46
1497150018.85,29916,16.81,74196.8,0.73,-5.97,-5.19,0,*4A
1497150020.09,29917,16.81,74196.3,0.77,-5.89,-5.15,0,*4C
1497150021.31,29918,16.81,74196.8,0.73,-5.73,-4.93,0,*4D
1497150022.54,29919,16.81,74196.0,0.73,-5.73,-5.03,0,*44
1497150023.77,29920,16.81,74194.8,0.73,-5.81,-5.03,0,*43
1497150025.0,29921,16.81,74198.5,0.73,-5.73,-5.03,0,*4F
1497150026.23,29922,16.81,74196.5,0.73,-5.69,-5.03,0,*47
1497150027.46,29923,16.81,74192.8,0.73,-5.81,-5.07,0,*44
1497150028.71,29924,16.81,74196.5,0.77,-5.61,-4.89,0,*4E
1497150029.94,29925,16.81,74196.8,0.73,-5.85,-5.15,0,*45
1497150031.19,29926,16.81,74198.0,0.77,-5.89,-5.23,0,*4B
1497150032.41,29927,16.81,74198.0,0.73,-5.73,-5.07,0,*4D
1497150033.65,29928,16.81,74196.5,0.73,-5.69,-5.03,0,*4D
1497150034.88,29929,16.81,74196.0,0.73,-5.81,-5.07,0,*4E
1497150036.11,29930,16.81,74196.3,0.73,-5.73,-5.03,0,*4F
1497150037.34,29931,16.81,74196.0,0.73,-5.69,-5.03,0,*45
1497150038.58,29932,16.81,74194.3,0.73,-5.81,-5.07,0,*44
1497150039.82,29933,16.81,74196.5,0.77,-5.65,-4.85,0,*40
1497150041.05,29934,16.81,74198.8,0.73,-5.81,-5.07,0,*42
1497150042.29,29935,16.81,74196.8,0.73,-5.85,-5.07,0,*47
1497150043.49,29936,16.81,74196.3,0.73,-5.97,-5.19,0,*48
1497150044.7,29937,16.81,74198.3,0.73,-5.97,-5.19,0,*49
1497150045.9,29938,16.81,74198.3,0.73,-5.97,-5.31,0,*4C
1497150047.14,29939,16.81,74196.8,0.73,-5.81,-5.07,0,*4F
1497150048.35,29940,16.81,74194.8,0.77,-5.77,-4.99,0,*4A
1497150049.59,29941,16.81,74194.3,0.77,-5.69,-4.89,0,*45
1497150050.81,29942,16.81,74198.5,0.73,-5.73,-4.93,0,*42
1497150052.05,29943,16.81,74198.3,0.73,-5.81,-5.07,0,*42
1497150053.28,29944,16.81,74198.8,0.73,-5.81,-4.93,0,*49
1497150054.5,29945,16.81,74198.5,0.73,-5.73,-4.89,0,*4E
1497150055.75,29946,16.81,74196.3,0.77,-5.69,-5.03,0,*41
1497150056.97,29947,16.81,74196.8,0.73,-5.73,-5.03,0,*4F
1497150058.18,29948,16.81,74196.8,0.77,-5.65,-4.99,0,*41
1497150059.41,29949,16.81,74196.8,0.73,-5.69,-4.89,0,*49
1497150060.66,29950,16.81,74198.3,0.77,-5.65,-4.89,0,*49
1497150061.9,29951,16.81,74194.0,0.77,-5.69,-4.89,0,*44
1497150063.13,29952,16.81,74198.5,0.73,-5.73,-5.07,0,*4F
1497150064.36,29953,16.81,74198.0,0.73,-5.81,-5.03,0,*47
1497150065.6,29954,16.81,74198.0,0.73,-5.81,-5.07,0,*44
1497150066.84,29955,16.81,74196.5,0.77,-5.81,-5.11,0,*46
1497150068.08,29956,16.81,74200.0,0.77,-5.65,-5.15,0,*4B
1497150069.3,29957,16.81,74196.0,0.77,-5.35,-5.11,0,*4B
1497150070.53,29958,16.81,74196.3,0.73,-5.27,-5.15,0,*47
1497150071.74,29959,16.81,74196.3,0.77,-5.23,-4.99,0,*43
1497150072.98,29960,16.81,74194.5,0.73,-5.31,-5.03,0,*4C
1497150074.19,29961,16.81,74196.0,0.77,-5.43,-5.19,0,*47
1497150075.41,29962,16.81,74194.8,0.77,-5.47,-5.23,0,*49
1497150076.62,29963,16.81,74198.0,0.73,-5.55,-5.27,0,*4B
1497150077.86,29964,16.81,74196.0,0.73,-5.27,-5.03,0,*4F
1497150079.08,29965,16.81,74196.0,0.73,-5.27,-5.11,0,*4D
1497150080.29,29966,16.81,74198.5,0.73,-5.51,-5.27,0,*4A
1497150081.53,29967,16.81,74196.5,0.73,-5.31,-5.15,0,*4C
1497150082.76,29968,16.81,74196.3,0.69,-5.31,-5.07,0,*4B
1497150083.99,29969,16.81,74196.8,0.73,-5.19,-4.93,0,*47
1497150085.23,29970,16.81,74194.8,0.77,-5.23,-4.85,0,*45
1497150086.46,29971,16.81,74196.5,0.73,-5.19,-4.89,0,*45
1497150087.69,29972,16.81,74196.3,0.73,-5.19,-4.89,0,*46
1497150088.92,29973,16.81,74196.0,0.73,-5.19,-4.89,0,*47
1497150090.14,29974,16.81,74196.3,0.77,-5.39,-5.15,0,*42
1497150091.34,29975,16.81,74196.5,0.73,-5.43,-5.27,0,*4B
1497150092.54,29976,16.81,74198.5,0.73,-5.43,-5.19,0,*45
1497150093.77,29977,16.81,74198.8,0.73,-5.27,-5.07,0,*49
1497150095.0,29978,16.81,74200.0,0.73,-5.27,-5.03,0,*42
1497150096.24,29979,16.81,74198.0,0.73,-5.31,-5.07,0,*40
1497150097.48,29980,16.81,74198.5,0.77,-5.23,-4.89,0,*46
1497150098.72,29981,16.81,74200.3,0.77,-5.27,-4.89,0,*43
1497150099.97,29982,16.81,74198.5,0.77,-5.15,-4.89,0,*41
1497150101.19,29983,16.81,74202.8,0.73,-5.19,-4.93,0,*43
1497150102.43,29984,16.81,74198.0,0.73,-5.07,-4.89,0,*40
1497150103.67,29985,16.81,74202.0,0.77,-5.15,-5.03,0,*45
1497150104.91,29986,16.81,74198.8,0.77,-5.19,-4.89,0,*49
1497150106.12,29987,16.81,74200.3,0.73,-5.39,-5.19,0,*46
1497150107.36,29988,16.81,74198.3,0.77,-5.27,-5.03,0,*49
1497150108.61,29989,16.81,74198.0,0.77,-5.31,-5.15,0,*48
1497150109.81,29990,16.81,74196.8,0.73,-5.39,-5.15,0,*4C
1497150111.02,29991,16.81,74196.8,0.73,-5.39,-5.19,0,*41
1497150112.22,29992,16.81,74202.0,0.73,-5.39,-5.19,0,*42
1497150113.45,29993,16.81,74194.8,0.73,-5.31,-5.03,0,*40
1497150114.67,29994,16.81,74196.8,0.77,-5.27,-4.99,0,*46
1497150115.9,29995,16.81,74196.5,0.73,-5.31,-5.03,0,*46
1497150117.11,29996,16.81,74198.0,0.77,-5.35,-5.11,0,*46
1497150118.32,29997,16.81,74198.5,0.73,-5.35,-5.11,0,*43
1497150119.52,29998,16.81,74198.5,0.73,-5.43,-5.23,0,*4C
1497150120.77,29999,16.81,74198.5,0.77,-5.27,-5.03,0,*49
1497150121.97,30000,16.81,74198.0,0.73,-5.43,-5.19,0,*45
1497150123.2,30001,16.81,74198.0,0.73,-5.31,-5.15,0,*4D
1497150124.41,30002,16.81,74200.5,0.77,-5.35,-5.15,0,*4E
1497150125.63,30003,16.81,74200.0,0.77,-5.39,-5.15,0,*43
1497150126.85,30004,16.81,74198.3,0.77,-5.39,-5.15,0,*44
1497150128.05,30005,16.81,74200.0,0.73,-5.27,-4.99,0,*4B
1497150129.28,30006,16.81,74198.5,0.73,-5.31,-5.07,0,*49
1497150130.51,30007,16.81,74200.0,0.73,-5.31,-5.03,0,*4C
1497150131.74,30008,16.81,74200.0,0.73,-5.27,-4.93,0,*4C
1497150132.97,30009,16.81,74196.8,0.73,-5.27,-5.07,0,*41
1497150134.18,30010,16.81,74196.0,0.77,-5.27,-4.99,0,*4B
1497150135.39,30011,16.81,74196.3,0.73,-5.39,-5.19,0,*48
1497150136.6,30012,16.81,74198.8,0.73,-5.51,-5.27,0,*48
1497150137.8,30013,16.81,74198.5,0.73,-5.39,-5.15,0,*46
1497150139.01,30014,16.81,74198.5,0.73,-5.39,-5.07,0,*42
1497150140.21,30015,16.81,74200.0,0.73,-5.43,-5.27,0,*4C
1497150141.42,30016,16.81,74198.8,0.73,-5.55,-5.31,0,*4F
1497150142.62,30017,16.81,74196.5,0.73,-5.43,-5.15,0,*4F
1497150143.83,30018,16.81,74196.3,0.69,-5.47,-5.19,0,*43
1497150145.07,30019,16.81,74194.8,0.69,-5.23,-5.07,0,*4F
1497150146.3,30020,16.81,74196.0,0.73,-5.27,-5.15,0,*49
1497150147.53,30021,16.81,74198.3,0.73,-5.27,-5.07,0,*4B
1497150148.73,30022,16.81,74198.0,0.73,-5.39,-5.15,0,*44
1497150149.97,30023,16.81,74196.5,0.73,-5.31,-5.07,0,*4E
1497150151.2,30024,16.81,74198.3,0.73,-5.31,-5.03,0,*4D
1497150152.42,30025,16.81,74200.3,0.77,-5.23,-4.99,0,*49
1497150153.65,30026,16.81,74198.3,0.69,-5.31,-5.11,0,*47
1497150154.89,30027,16.81,74196.3,0.69,-5.31,-5.11,0,*46
1497150156.12,30028,16.81,74196.3,0.73,-5.15,-5.07,0,*43
1497150157.35,30029,16.81,74202.0,0.73,-5.31,-5.15,0,*47
1497150158.56,30030,16.81,74196.8,0.73,-5.51,-5.27,0,*48
1497150159.77,30031,16.81,74198.0,0.73,-5.51,-5.27,0,*49
1497150160.97,30032,16.81,74196.3,0.73,-5.43,-5.19,0,*44
1497150162.18,30033,16.81,74198.5,0.73,-5.55,-5.31,0,*48
1497150163.39,30034,16.81,74198.8,0.73,-5.51,-5.27,0,*4C
1497150164.6,30035,16.81,74200.5,0.73,-5.51,-5.27,0,*4D
1497150165.8,30036,16.81,74198.8,0.73,-5.43,-5.27,0,*4D
1497150167.01,30037,16.81,74202.8,0.73,-5.39,-5.31,0,*46
1497150168.22,30038,16.81,74200.3,0.69,-5.35,-5.19,0,*44
1497150169.42,30039,16.81,74196.8,0.69,-5.35,-5.19,0,*45
1497150170.64,30040,16.81,74200.0,0.69,-5.55,-5.23,0,*44
1497150171.85,30041,16.81,74198.8,0.69,-5.55,-5.31,0,*46
1497150173.06,30042,16.81,74198.0,0.69,-5.47,-5.23,0,*45
1497150174.27,30043,16.81,74198.5,0.69,-5.43,-5.23,0,*40
1497150175.48,30044,16.81,74202.3,0.69,-5.35,-5.19,0,*4F
1497150176.69,30045,16.81,74198.0,0.69,-5.47,-5.31,0,*41
1497150177.9,30046,16.81,74200.5,0.69,-5.35,-5.19,0,*4D
1497150179.13,30047,16.81,74198.8,0.73,-5.31,-5.07,0,*4C
1497150180.35,30048,16.81,74200.5,0.69,-5.55,-5.23,0,*4C
1497150181.56,30049,16.81,74196.5,0.69,-5.47,-5.31,0,*4D
1497150182.77,30050,16.81,74200.3,0.67,-5.51,-5.35,0,*48
1497150183.97,30051,16.81,74198.0,0.69,-5.43,-5.19,0,*4A
1497150185.2,30052,16.81,74194.0,0.69,-5.31,-5.11,0,*44
1497150186.41,30053,16.81,74196.3,0.67,-5.47,-5.35,0,*4C
1497150187.65,30054,16.81,74198.3,0.67,-5.51,-5.27,0,*4F
1497150188.86,30055,16.81,74198.3,0.69,-5.43,-5.23,0,*47
1497150190.06,30056,16.81,74198.8,0.69,-5.43,-5.23,0,*44
1497150191.29,30057,16.81,74198.5,0.67,-5.61,-5.35,0,*4C
1497150192.49,30058,16.81,74196.8,0.69,-5.61,-5.35,0,*4D
1497150193.7,30059,16.81,74198.0,0.69,-5.65,-5.39,0,*44
1497150194.9,30060,16.81,74196.8,0.69,-5.43,-5.27,0,*45
1497150196.13,30061,16.81,74196.0,0.67,-5.61,-5.39,0,*45
1497150197.34,30062,16.81,74198.8,0.69,-5.47,-5.31,0,*44
1497150198.57,30063,16.81,74200.0,0.67,-5.61,-5.39,0,*47
1497150199.77,30064,16.81,74198.8,0.69,-5.61,-5.35,0,*42
1497150200.98,30065,16.81,74200.0,0.67,-5.51,-5.35,0,*4E
1497150202.18,30066,16.81,74200.0,0.69,-5.43,-5.31,0,*44
1497150203.39,30067,16.81,74196.5,0.69,-5.43,-5.23,0,*46
1497150204.63,30068,16.81,74196.8,0.67,-5.51,-5.27,0,*40
1497150205.83,30069,16.81,74200.5,0.69,-5.43,-5.19,0,*41
1497150207.04,30070,16.81,74196.5,0.69,-5.43,-5.23,0,*40
1497150208.3,30071,16.81,74196.5,0.67,-5.61,-5.27,0,*4B
1497150209.54,30072,16.81,74196.0,0.67,-5.47,-5.23,0,*48
1497150210.78,30073,16.81,74198.5,0.67,-5.47,-5.27,0,*4D
1497150211.99,30074,16.81,74194.0,0.69,-5.47,-5.23,0,*40
1497150213.2,30075,16.81,74196.0,0.69,-5.35,-5.23,0,*44
1497150214.41,30076,16.81,74198.5,0.69,-5.43,-5.23,0,*46
1497150215.62,30077,16.81,74200.8,0.69,-5.47,-5.31,0,*40
1497150216.83,30078,16.81,74198.8,0.69,-5.47,-5.23,0,*4C
1497150218.07,30079,16.81,74196.5,0.67,-5.39,-5.23,0,*4A
1497150219.28,30080,16.81,74198.5,0.69,-5.43,-5.23,0,*4F
1497150220.53,30081,16.81,74200.8,0.67,-5.61,-5.27,0,*44
1497150221.77,30082,16.81,74198.3,0.67,-5.65,-5.39,0,*4C
1497150222.99,30083,16.81,74198.8,0.67,-5.73,-5.47,0,*43
1497150224.22,30084,16.81,74198.0,0.67,-5.61,-5.35,0,*42
1497150225.45,30085,16.81,74198.3,0.67,-5.61,-5.35,0,*43
1497150226.68,30086,16.81,74200.5,0.69,-5.69,-5.31,0,*42
1497150227.91,30087,16.81,74198.5,0.67,-5.61,-5.39,0,*4D
1497150229.15,30088,16.81,74196.3,0.67,-5.39,-5.23,0,*44
1497150230.36,30089,16.81,74198.8,0.69,-5.35,-5.07,0,*41
1497150231.6,30090,16.81,74198.0,0.67,-5.47,-5.23,0,*44
1497150232.84,30091,16.81,74198.0,0.67,-5.51,-5.27,0,*46
1497150234.05,30092,16.81,74198.0,0.69,-5.55,-5.31,0,*48
1497150235.29,30093,16.81,74198.8,0.67,-5.47,-5.27,0,*43
1497150236.53,30094,16.81,74198.5,0.67,-5.47,-5.23,0,*40
1497150237.79,30095,16.81,74196.3,0.67,-5.27,-5.15,0,*42
1497150239.02,30096,16.81,74198.8,0.67,-5.35,-5.15,0,*42
1497150240.25,30097,16.81,74194.8,0.69,-5.31,-5.11,0,*4D
1497150241.46,30098,16.81,74198.5,0.69,-5.43,-5.19,0,*4F
1497150242.69,30099,16.81,74198.5,0.67,-5.39,-5.27,0,*40
1497150243.93,30100,16.81,74198.0,0.67,-5.39,-5.15,0,*40
1497150245.16,30101,16.81,74196.5,0.67,-5.39,-5.15,0,*41
1497150246.37,30102,16.81,74196.5,0.69,-5.47,-5.23,0,*40
1497150247.61,30103,16.81,74196.3,0.67,-5.51,-5.27,0,*4C
1497150248.82,30104,16.81,74198.8,0.69,-5.43,-5.23,0,*42
1497150250.05,30105,16.81,74198.3,0.67,-5.35,-5.15,0,*49
1497150251.27,30106,16.81,74198.0,0.69,-5.47,-5.27,0,*40
1497150252.48,30107,16.81,74196.3,0.69,-5.47,-5.23,0,*45
1497150253.71,30108,16.81,74198.5,0.67,-5.61,-5.35,0,*47
1497150254.92,30109,16.81,74196.3,0.69,-5.55,-5.31,0,*4B
1497150256.15,30110,16.81,74198.5,0.69,-5.61,-5.31,0,*44
1497150257.33,30111,16.81,74196.8,0.69,-5.47,-5.35,0,*45
1497150258.54,30112,16.81,74200.3,0.67,-5.51,-5.35,0,*4F
1497150259.77,30113,16.81,74198.5,0.67,-5.61,-5.39,0,*41
1497150261.0,30114,16.81,74196.5,0.67,-5.61,-5.39,0,*46
1497150262.23,30115,16.81,74200.3,0.67,-5.47,-5.27,0,*4C
1497150263.47,30116,16.81,74196.8,0.67,-5.65,-5.39,0,*40
1497150264.69,30117,16.81,74198.0,0.67,-5.61,-5.35,0,*49
1497150265.93,30118,16.81,74198.8,0.67,-5.65,-5.39,0,*4E
1497150267.15,30119,16.81,74198.5,0.67,-5.73,-5.47,0,*41
1497150268.36,30120,16.81,74202.8,0.67,-5.51,-5.39,0,*42
1497150269.57,30121,16.81,74198.0,0.67,-5.51,-5.39,0,*43
1497150270.8,30122,16.81,74200.0,0.67,-5.61,-5.39,0,*43
1497150272.03,30123,16.81,74196.0,0.67,-5.65,-5.39,0,*46
1497150273.21,30124,16.81,74198.3,0.65,-5.51,-5.35,0,*48
1497150274.41,30125,16.81,74196.5,0.65,-5.61,-5.39,0,*46
1497150275.61,30126,16.81,74196.5,0.65,-5.65,-5.35,0,*4D
1497150276.79,30127,16.81,74196.8,0.65,-5.51,-5.35,0,*4B
1497150277.96,30128,16.81,74196.3,0.65,-5.51,-5.35,0,*44
1497150279.17,30129,16.81,74198.0,0.65,-5.39,-5.23,0,*4C
1497150280.38,30130,16.81,74196.5,0.65,-5.39,-5.15,0,*41
1497150281.61,30131,16.81,74198.5,0.67,-5.39,-5.23,0,*47
1497150282.85,30132,16.81,74196.5,0.67,-5.35,-5.15,0,*4D
1497150284.09,30133,16.81,74198.3,0.67,-5.47,-5.23,0,*4C
1497150285.29,30134,16.81,74196.3,0.67,-5.51,-5.35,0,*4B
1497150286.5,30135,16.81,74198.3,0.65,-5.47,-5.23,0,*48
1497150287.71,30136,16.81,74198.0,0.65,-5.47,-5.27,0,*4F
1497150288.92,30137,16.81,74196.5,0.65,-5.39,-5.27,0,*47
1497150290.13,30138,16.81,74198.0,0.65,-5.39,-5.23,0,*4C
1497150291.37,30139,16.81,74196.5,0.67,-5.39,-5.23,0,*4F
1497150292.6,30140,16.81,74196.5,0.67,-5.35,-5.15,0,*48
1497150293.81,30141,16.81,74200.3,0.65,-5.39,-5.23,0,*42
1497150295.02,30142,16.81,74194.5,0.65,-5.47,-5.23,0,*48
1497150296.22,30143,16.81,74200.3,0.65,-5.35,-5.11,0,*4D
1497150297.46,30144,16.81,74196.8,0.67,-5.51,-5.23,0,*4B
1497150298.67,30145,16.81,74198.3,0.69,-5.35,-5.07,0,*40
1497150299.9,30146,16.81,74196.0,0.67,-5.35,-5.11,0,*4A
1497150301.11,30147,16.81,74198.8,0.67,-5.47,-5.35,0,*48
1497150302.35,30148,16.81,74196.3,0.67,-5.47,-5.27,0,*44
1497150303.61,30149,16.81,74196.3,0.67,-5.27,-5.15,0,*42
1497150304.84,30150,16.81,74198.8,0.67,-5.39,-5.11,0,*41
1497150306.07,30151,16.81,74198.5,0.69,-5.31,-5.19,0,*4E
1497150307.33,30152,16.81,74196.3,0.67,-5.27,-5.15,0,*48
1497150308.59,30153,16.81,74196.5,0.67,-5.27,-5.11,0,*4D
1497150309.86,30154,16.81,74200.5,0.67,-5.23,-5.03,0,*4D
1497150311.1,30155,16.81,74196.8,0.69,-5.23,-5.07,0,*46
1497150312.36,30156,16.81,74200.0,0.67,-5.23,-5.11,0,*4C
1497150313.59,30157,16.81,74200.3,0.73,-5.27,-5.15,0,*48
1497150314.79,30158,16.81,74198.0,0.69,-5.35,-5.19,0,*43
1497150316.02,30159,16.81,74196.0,0.67,-5.27,-4.99,0,*46
1497150317.25,30160,16.81,74196.8,0.67,-5.35,-5.15,0,*4A
1497150318.46,30161,16.81,74196.3,0.69,-5.35,-5.11,0,*41
1497150319.7,30162,16.81,74196.0,0.69,-5.31,-5.11,0,*46
1497150320.93,30163,16.81,74196.5,0.67,-5.39,-5.27,0,*44
1497150322.14,30164,16.81,74198.8,0.69,-5.35,-5.19,0,*4C
1497150323.4,30165,16.81,74196.5,0.67,-5.27,-5.23,0,*49
1497150324.64,30166,16.81,74198.0,0.69,-5.23,-5.07,0,*46
1497150325.87,30167,16.81,74198.0,0.67,-5.35,-5.11,0,*49
1497150327.11,30168,16.81,74202.5,0.69,-5.23,-5.07,0,*48
1497150328.35,30169,16.81,74196.0,0.69,-5.31,-5.11,0,*4D
1497150329.55,30170,16.81,74198.8,0.69,-5.35,-5.11,0,*41
1497150330.76,30171,16.81,74192.5,0.69,-5.35,-5.19,0,*48
1497150331.96,30172,16.81,74198.0,0.69,-5.35,-5.11,0,*43
1497150333.2,30173,16.81,74196.5,0.69,-5.23,-5.11,0,*45
1497150334.43,30174,16.81,74196.8,0.69,-5.31,-5.11,0,*41
1497150335.67,30175,16.81,74196.0,0.69,-5.27,-5.03,0,*44
1497150336.9,30176,16.81,74196.3,0.69,-5.31,-5.19,0,*4B
1497150338.14,30177,16.81,74198.8,0.69,-5.31,-5.11,0,*42
1497150339.37,30178,16.81,74200.8,0.69,-5.31,-5.11,0,*4D
1497150340.61,30179,16.81,74202.0,0.69,-5.31,-5.07,0,*4B
1497150341.84,30180,16.81,74200.8,0.73,-5.19,-5.03,0,*48
1497150343.08,30181,16.81,74198.3,0.73,-5.19,-5.03,0,*49
1497150344.31,30182,16.81,74198.8,0.69,-5.23,-5.11,0,*4B
1497150345.55,30183,16.81,74200.0,0.69,-5.31,-5.07,0,*4E
1497150346.78,30184,16.81,74198.8,0.73,-5.27,-5.15,0,*46
1497150347.98,30185,16.81,74200.0,0.73,-5.39,-5.15,0,*48
1497150349.21,30186,16.81,74198.8,0.73,-5.27,-5.03,0,*43
1497150350.45,30187,16.81,74198.0,0.73,-5.27,-5.03,0,*42
1497150351.68,30188,16.81,74196.8,0.73,-5.27,-5.07,0,*49
1497150352.91,30189,16.81,74198.3,0.73,-5.27,-5.15,0,*4B
1497150354.14,30190,16.81,74198.8,0.73,-5.31,-5.15,0,*44
1497150355.37,30191,16.81,74198.5,0.69,-5.31,-5.11,0,*4A
1497150356.6,30192,16.81,74196.5,0.73,-5.19,-5.07,0,*4F
1497150357.84,30193,16.81,74202.3,0.73,-5.27,-5.07,0,*43
1497150359.07,30194,16.81,74200.3,0.73,-5.19,-5.03,0,*4D
1497150360.3,30195,16.81,74196.8,0.73,-5.27,-5.03,0,*41
1497150361.53,30196,16.81,74198.3,0.73,-5.27,-5.07,0,*46
1497150362.76,30197,16.81,74202.0,0.73,-5.27,-5.15,0,*44
1497150363.97,30198,16.81,74198.3,0.73,-5.39,-5.19,0,*48
1497150365.17,30199,16.81,74200.0,0.73,-5.43,-5.19,0,*44
1497150366.4,30200,16.81,74198.8,0.73,-5.31,-5.07,0,*4D
1497150367.63,30201,16.81,74196.5,0.73,-5.27,-5.07,0,*4B
1497150368.85,30202,16.81,74202.5,0.77,-5.19,-4.99,0,*47
1497150370.08,30203,16.81,74200.8,0.73,-5.19,-5.03,0,*40
1497150371.31,30204,16.81,74200.8,0.73,-5.27,-5.07,0,*4E
1497150372.54,30205,16.81,74198.3,0.73,-5.27,-5.07,0,*4F
1497150373.78,30206,16.81,74200.0,0.73,-5.31,-5.07,0,*4B
1497150375.02,30207,16.81,74200.5,0.77,-5.23,-5.03,0,*49
1497150376.26,30208,16.81,74200.3,0.73,-5.31,-5.07,0,*45
1497150377.46,30209,16.81,74200.3,0.73,-5.39,-5.19,0,*43
1497150378.7,30210,16.81,74200.5,0.73,-5.31,-5.15,0,*4F
1497150379.93,30211,16.81,74202.8,0.73,-5.27,-5.03,0,*4E
1497150381.14,30212,16.81,74198.5,0.77,-5.27,-4.99,0,*4B
1497150382.37,30213,16.81,74200.3,0.73,-5.31,-5.19,0,*40
1497150383.6,30214,16.81,74196.8,0.73,-5.27,-5.07,0,*4F
1497150384.84,30215,16.81,74198.5,0.77,-5.27,-5.11,0,*4D
1497150386.06,30216,16.81,74200.0,0.69,-5.47,-5.23,0,*46
1497150387.29,30217,16.81,74200.0,0.73,-5.31,-5.15,0,*48
1497150388.52,30218,16.81,74200.0,0.73,-5.31,-5.15,0,*47
1497150389.75,30219,16.81,74202.8,0.73,-5.31,-5.15,0,*46
1497150390.98,30220,16.81,74198.0,0.73,-5.31,-5.15,0,*4C
1497150392.22,30221,16.81,74202.3,0.73,-5.31,-5.15,0,*4D
1497150393.42,30222,16.81,74200.3,0.73,-5.39,-5.19,0,*4A
1497150394.62,30223,16.81,74200.5,0.73,-5.43,-5.27,0,*4B
1497150395.84,30224,16.81,74200.5,0.77,-5.35,-5.15,0,*48
1497150397.07,30225,16.81,74198.3,0.73,-5.27,-5.03,0,*49
1497150398.3,30226,16.81,74202.0,0.73,-5.27,-5.07,0,*4E
1497150399.53,30227,16.81,74200.8,0.73,-5.31,-5.19,0,*47
1497150400.77,30228,16.81,74200.8,0.73,-5.27,-5.03,0,*44
1497150402.0,30229,16.81,74198.0,0.73,-5.27,-5.03,0,*45
1497150403.23,30230,16.81,74204.0,0.73,-5.31,-5.15,0,*4D
1497150404.46,30231,16.81,74202.5,0.73,-5.31,-5.15,0,*4C
1497150405.7,30232,16.81,74202.5,0.77,-5.27,-5.11,0,*48
1497150406.94,30233,16.81,74200.8,0.73,-5.23,-5.03,0,*4A
1497150408.18,30234,16.81,74200.8,0.77,-5.23,-5.15,0,*4E
1497150409.42,30235,16.81,74202.8,0.73,-5.31,-5.15,0,*48
1497150410.65,30236,16.81,74200.3,0.73,-5.31,-5.07,0,*48
1497150411.88,30237,16.81,74202.3,0.73,-5.27,-5.03,0,*4A
1497150413.11,30238,16.81,74202.3,0.73,-5.27,-5.19,0,*4E
1497150414.35,30239,16.81,74198.5,0.73,-5.31,-5.27,0,*45
1497150415.58,30240,16.81,74200.8,0.73,-5.31,-5.15,0,*4A
1497150416.79,30241,16.81,74200.8,0.77,-5.39,-5.19,0,*4B
1497150418.03,30242,16.81,74200.8,0.77,-5.27,-5.11,0,*4F
1497150419.27,30243,16.81,74202.5,0.73,-5.31,-5.07,0,*4A
1497150420.51,30244,16.81,74200.5,0.77,-5.27,-4.89,0,*49
1497150421.72,30245,16.81,74200.0,0.77,-5.15,-4.99,0,*48
1497150422.94,30246,16.81,74202.8,0.77,-5.15,-4.99,0,*4B
1497150424.15,30247,16.81,74198.5,0.77,-5.15,-4.99,0,*4A
1497150425.38,30248,16.81,74198.8,0.73,-5.27,-5.15,0,*45
1497150426.61,30249,16.81,74200.0,0.73,-5.27,-5.15,0,*44
1497150427.85,30250,16.81,74202.3,0.77,-5.27,-5.15,0,*48
1497150429.12,30251,16.81,74202.3,0.79,-5.27,-5.23,0,*42
1497150430.36,30252,16.81,74200.0,0.73,-5.31,-5.15,0,*49
1497150431.57,30253,16.81,74200.0,0.77,-5.35,-5.15,0,*48
1497150432.79,30254,16.81,74200.0,0.77,-5.23,-4.99,0,*4D
1497150434.03,30255,16.81,74196.8,0.77,-5.15,-5.03,0,*4B
1497150435.27,30256,16.81,74200.0,0.77,-5.27,-5.15,0,*4E
1497150436.49,30257,16.81,74204.0,0.77,-5.35,-5.15,0,*4C
1497150437.71,30258,16.81,74200.5,0.77,-5.35,-5.15,0,*43
1497150438.95,30259,16.81,74200.0,0.77,-5.27,-5.11,0,*45
1497150440.17,30260,16.81,74198.3,0.77,-5.35,-5.27,0,*49
1497150441.39,30261,16.81,74202.5,0.77,-5.47,-5.27,0,*4D
1497150442.6,30262,16.81,74202.3,0.77,-5.35,-5.15,0,*4A
1497150443.83,30263,16.81,74198.5,0.77,-5.47,-5.23,0,*4B
1497150445.05,30264,16.81,74202.0,0.77,-5.35,-5.23,0,*49
1497150446.29,30265,16.81,74200.8,0.77,-5.23,-5.03,0,*4D
1497150447.5,30266,16.81,74200.5,0.73,-5.51,-5.27,0,*49
1497150448.74,30267,16.81,74202.3,0.73,-5.27,-5.07,0,*4B
1497150449.97,30268,16.81,74198.5,0.73,-5.31,-5.27,0,*41
1497150451.2,30269,16.81,74198.3,0.73,-5.19,-5.15,0,*4B
1497150452.41,30270,16.81,74198.8,0.77,-5.15,-4.99,0,*4E
1497150453.66,30271,16.81,74202.8,0.79,-5.35,-5.27,0,*47
1497150454.91,30272,16.81,74202.8,0.77,-5.23,-5.03,0,*4B
1497150456.15,30273,16.81,74202.3,0.77,-5.27,-5.11,0,*4D
1497150457.37,30274,16.81,74200.8,0.77,-5.39,-5.23,0,*44
1497150458.61,30275,16.81,74202.3,0.77,-5.27,-5.23,0,*4A
1497150459.85,30276,16.81,74202.5,0.73,-5.31,-5.19,0,*43
1497150461.09,30277,16.81,74198.5,0.77,-5.27,-5.15,0,*4D
1497150462.33,30278,16.81,74200.8,0.77,-5.27,-5.11,0,*46
1497150463.53,30279,16.81,74198.3,0.73,-5.39,-5.19,0,*44
1497150464.75,30280,16.81,74202.0,0.77,-5.39,-5.23,0,*4F
1497150465.97,30281,16.81,74202.3,0.77,-5.35,-5.15,0,*47
1497150467.21,30282,16.81,74200.0,0.77,-5.23,-5.11,0,*47
1497150468.45,30283,16.81,74200.5,0.77,-5.27,-5.15,0,*46
1497150469.7,30284,16.81,74200.8,0.77,-5.27,-5.15,0,*41
1497150470.92,30285,16.81,74200.3,0.77,-5.35,-5.23,0,*46
1497150472.16,30286,16.81,74200.0,0.77,-5.27,-5.11,0,*47
1497150473.38,30287,16.81,74200.0,0.77,-5.47,-5.23,0,*41
1497150474.59,30288,16.81,74202.8,0.77,-5.35,-5.11,0,*4A
1497150475.81,30289,16.81,74200.0,0.77,-5.39,-5.15,0,*43
1497150477.06,30290,16.81,74202.5,0.79,-5.39,-5.23,0,*40
1497150478.33,30291,16.81,74202.5,0.79,-5.27,-5.11,0,*4F
1497150479.53,30292,16.81,74200.5,0.73,-5.39,-5.19,0,*41
1497150480.75,30293,16.81,74200.3,0.77,-5.35,-5.15,0,*44
1497150481.97,30294,16.81,74202.3,0.77,-5.47,-5.27,0,*47
1497150483.17,30295,16.81,74200.3,0.73,-5.51,-5.31,0,*42
1497150484.38,30296,16.81,74202.8,0.73,-5.39,-5.27,0,*48
1497150485.6,30297,16.81,74204.0,0.77,-5.39,-5.23,0,*49
1497150486.81,30298,16.81,74202.3,0.73,-5.51,-5.31,0,*4F
1497150488.01,30299,16.81,74202.0,0.73,-5.43,-5.31,0,*4D
1497150489.24,30300,16.81,74200.0,0.73,-5.31,-5.27,0,*4E
1497150490.46,30301,16.81,74204.3,0.77,-5.39,-5.15,0,*42
1497150491.7,30302,16.81,74200.8,0.77,-5.27,-5.27,0,*4F
1497150492.94,30303,16.81,74200.5,0.77,-5.27,-5.11,0,*4B
1497150494.18,30304,16.81,74200.5,0.73,-5.27,-5.07,0,*4F
1497150495.43,30305,16.81,74202.0,0.77,-5.23,-5.03,0,*4A
1497150496.67,30306,16.81,74202.5,0.77,-5.23,-5.03,0,*49
1497150497.87,30307,16.81,74202.8,0.73,-5.43,-5.19,0,*41
1497150499.11,30308,16.81,74202.8,0.77,-5.27,-5.11,0,*40
1497150500.36,30309,16.81,74198.8,0.77,-5.23,-5.15,0,*41
1497150501.61,30310,16.81,74202.5,0.77,-5.23,-5.15,0,*49
1497150502.82,30311,16.81,74200.3,0.77,-5.35,-5.27,0,*4E
1497150504.04,30312,16.81,74200.3,0.77,-5.35,-5.23,0,*49
1497150505.29,30313,16.81,74200.5,0.77,-5.27,-5.15,0,*4E
1497150506.5,30314,16.81,74202.8,0.77,-5.39,-5.27,0,*47
1497150507.75,30315,16.81,74204.0,0.77,-5.27,-5.11,0,*4C
1497150508.99,30316,16.81,74198.8,0.77,-5.27,-5.15,0,*4B
1497150510.23,30317,16.81,74198.3,0.77,-5.23,-5.11,0,*4A
1497150511.48,30318,16.81,74200.5,0.77,-5.23,-5.15,0,*41
1497150512.67,30319,16.81,74198.3,0.77,-5.47,-5.35,0,*40
1497150513.89,30320,16.81,74200.5,0.77,-5.51,-5.27,0,*4E
1497150515.13,30321,16.81,74202.0,0.77,-5.27,-5.15,0,*4F